Погода Жамбейты

Погода Жамбейты : погода сейчас, прогноз погоды и архив. Всё, что Вы хотите узнать о погоде Жамбейты!

Хотите узнать прогноз погоды Жамбейты? Тогда Вам сюда: Погода Жамбейты

Поиск расширенной информации на нашем сайте:

Другие новости

Новости СМИ2

Главная страница сайта

Новости сайта

03.07.2017

Напоминаем, что на нашем специализированном сайте Метеоцентр.Азия вы можете получить высокодетализированные автоматические прогнозы погоды по пунктам России, СНГ и мира в авиационном формате (включающие направление и скорость ветра, видимость, явления погоды, количество и форму облачности, нижнюю и верхнюю границу облачности).


Погода Жамбейты - сегодня

Время (UTC), дата Ветер
(°,м/с) 
Видим.   Явления Облачность Т
(°С)
Тd
(°С)
f(%) Тe
(°С)
Pmin
(гПа)
dP
(гПа)
Po
(мм)
O2
(г/м3)
Тmin Tmax R s Состояние
почвы
15 22.09.18 360 (С) н/о    ясно 
+17 -0.9 30 +18  1021.7  0.1  764  290    +21.6       
18 22.09.18 тихо ()   н/о    ясно 
+11.6 +0.3 46 +12  1022.6  0.7  764  295    +21.6       
21 22.09.18 тихо ()   н/о    ясно 
+9.4 +1.3 57 +9  1022.3  -0.3  764  297           
00 23.09.18 тихо ()   н/о    ясно 
+7.3 +2.4 71 +7  1022.9  0.6  764  300           
03 23.09.18 тихо ()   20000 м    3/0 верхняя 
[Ci ing]
+6.6 +3 78 +7  1022.7  -0.2  764  300           
06 23.09.18 тихо ()   20000 м    ясно 
+19.1 +2.5 33 +19  1022.6  764  287  +6.2         
09 23.09.18 тихо ()   20000 м    ясно 
+23.1 +6.4 34 +23  1021.4  -1.2  763  283           
12 23.09.18 230 (ЮЗ) 20000 м    ясно 
+24.2 +5.6 30 +24  1020  -1.3  762  281           
15 23.09.18 190 (Ю) н/о    ясно 
+19 +3 34 +20  1019.3  -0.8  762  286    +24.5       
18 23.09.18 160 (Ю) н/о    ясно 
+13.5 +1.3 43 +14  1018.7  -0.5  761  292    +24.5       
21 23.09.18 160 (Ю) н/о    ясно 
+10.6 +0.8 51 +11  1018  -0.8  761  295           
00 24.09.18 160 (Ю) н/о    ясно 
+8.7 +1.3 60 +9  1017.5  -0.5  760  297           
03 24.09.18 140 (ЮВ) 20000 м    3/0 средняя 
[Ac lent]
+7.2 +1.8 69 +7  1016.9  -0.6  760  298           
06 24.09.18 180 (Ю) 20000 м    3/0 верхняя 
[Ci fib]
+20 +4.1 35 +20  1016.5  -0.3  760  285  +6.8         
09 24.09.18 180 (Ю) 20000 м    8/0 верхняя 
[Ci ing]
+23.8 +3 26 +24  1014.4  -2  758  281           
12 24.09.18 210 (ЮЗ) 10  20000 м    9/9 600 м кучево-дожд. 
[Cb cap]
+19.6 +11.6 60 +22  1014.3  -0.1  758  283           
15 24.09.18 190 (Ю) н/о  в посл. час ливневой дождь  9/9 600 м кучево-дожд. 
[Cb cap]
+15.4 +15.4 100 +24  1014.8  0.4  758  286    +25       
18 24.09.18 280 (З) н/о  {ливн. осадки}  9/9 600 м кучево-дожд. 
[Cb cap]
+12.9 +12.9 100 +18  1015.9  0.9  759  289    +25     
21 24.09.18 230 (ЮЗ) н/о    5/5 1000 м 
[Sc diur, vesp]
+9.7 +9.7 100 +11  1016.3  0.4  759  294           
00 25.09.18 180 (Ю) н/о    ясно 
+7.6 +7.6 100 +8  1016.9  0.6  760  297           
03 25.09.18 170 (Ю) 20000 м    ясно 
+6.8 +6.8 100 +7  1017.2  0.3  760  298           
06 25.09.18 220 (ЮЗ) 20000 м    3/0 верхняя 
[Ci fib]
+14.8 +12 83 +19  1017.5  0.3  760  288  +6.4         
09 25.09.18 250 (З) 20000 м    6/6 1000 м 
[Cu hum]
+17.6 +8.2 54 +18  1017.2  -0.2  760  286           
12 25.09.18 240 (ЮЗ) 20000 м    4/0 средняя 
[Ac lent]
+19.4 +8.1 48 +20  1016.8  -0.3  760  285           
15 25.09.18 200 (Ю) н/о    6/0 средняя 
[Ac trans]
+15.4 +9.6 68 +16  1017.1  0.1  760  288    +19.6       
Время (UTC), дата Ветер
(°,м/с) 
Видим.   Явления Облачность Т
(°С)
Тd
(°С)
f(%) Тe
(°С)
Pmin
(гПа)
dP
(гПа)
Po
(мм)
O2
(г/м3)
Тmin Tmax R s Состояние
почвы

Для получения пояснительной информации подведите курсор к названию столбца.

ПОГОДА Жамбейты - архив

Всё, что Вы хотите узнать о погоде Жамбейты - удобно и подробно!

Выберите нужную дату (начиная с 1 января 2015* года) и нажмите кнопку "Найти".
Будут отображены архивные сводки погоды по пункту Жамбейты, начиная с указанной даты.


Отображать данные в формате CSV (для использования в таблицах Excel)


Внимание! Наш архив погоды предназначен исключительно для личного некоммерческого использования в познавательных целях. Если Вам необходимы официальные справки о состоянии погоды (для производственных, юридических, коммерческих и т.п. целей), обращайтесь в органы Росгидромета.

*Примечание: данная дата относится к архиву по метеостанциям СССР (Россия, СНГ, Балтия).
Архив по метеостанциям Зарубежной Европы и Азии (кроме Китая) хранится 10 дней, по другим регионам земного шара (Китай, Африка, Америка, Австралия, Океания) - 1 день.

Жамбейты - район местоположения метеостанции


Название, широта, долгота, высота метеостанции:
Жамбейты 50.2°ш. 52.6°д. 32 м над ур. моря [Казахстан]

Дополнительная информация

В oтличие oт бoльшинства пoгoдных сайтoв мы публикуем пoдрoбную метеoинфoрмацию в детальнoм прoфессиoнальнoм фoрмате.

Характеристики температуры и влажнoсти вoздуха измеряются на высoте 2 м в тени вдали oт зданий и деревьев.
Скoрoсть ветра измеряется на высoте 10 м (на урoвне рoста челoвека скoрoсть ветра ниже в 1.5-2 раза). Если метеoстанция нахoдится в гoрoде или в лесу, тo скoрoсть ветра занижена на 2-4 м/с пo сравнению с oткрытым местoм. Скoрoсть ветра над акватoриями крупных рек и oзёр, а также на вершинах хoлмoв на 2-5 м/с выше, чем в oбычных услoвиях.
Атмoсфернoе давление в разных тoчках местнoсти мoжет значительнo oтличаться oт давления на метеoстанции, в зависимoсти oт услoвий рельефа (при пoдъёме на 10 м давление пoнижается примернo на 1 мм рт.ст.).